Total_Precipitation_Accumulation
1.57 1.92 2.48 3.27 4.28 5.10 5.34 4.82 4.26 3.79 3.32 2.85 2.23 1.78 1.56 1.39 1.17 0.99 0.84 0.74 0.69 0.69 0.71 0.61 0.59 0.55 0.55 0.58 0.60 0.67 0.71 0.71 0.77 0.85 0.82 0.75 0.68 0.72 0.73 0.75 0.84 0.79 0.80
1.73 2.33 3.30 3.92 4.12 4.16 3.84 3.43 3.08 2.78 2.33 1.88 1.53 1.33 1.20 1.01 0.85 0.72 0.66 0.58 0.52 0.51 0.49 0.48 0.45 0.44 0.45 0.50 0.51 0.52 0.52 0.52 0.59 0.68 0.73 0.64 0.58 0.53 0.46 0.56 0.55 0.57 0.77
1.86 2.62 3.18 3.25 2.91 2.50 2.28 2.25 2.22 1.87 1.69 1.53 1.33 1.23 1.14 0.94 0.77 0.65 0.54 0.45 0.38 0.37 0.38 0.37 0.37 0.41 0.41 0.45 0.48 0.45 0.44 0.43 0.43 0.51 0.64 0.62 0.54 0.46 0.40 0.42 0.46 0.55 0.66
1.33 1.75 1.98 1.81 1.74 1.77 1.79 1.92 1.93 1.65 1.54 1.37 1.09 0.88 0.78 0.69 0.58 0.52 0.49 0.46 0.38 0.33 0.30 0.30 0.29 0.29 0.33 0.41 0.39 0.42 0.43 0.41 0.34 0.36 0.44 0.48 0.51 0.52 0.48 0.43 0.43 0.52 0.58
0.79 0.87 0.96 0.97 1.06 1.15 1.36 1.61 1.71 1.64 1.47 1.27 1.12 0.98 0.79 0.71 0.67 0.64 0.61 0.55 0.46 0.37 0.32 0.32 0.29 0.25 0.24 0.27 0.30 0.39 0.44 0.44 0.38 0.35 0.37 0.40 0.41 0.44 0.46 0.38 0.36 0.40 0.38
0.64 0.66 0.64 0.68 0.81 0.93 1.06 1.26 1.44 1.57 1.52 1.35 1.17 1.07 0.92 0.81 0.73 0.68 0.64 0.56 0.47 0.42 0.36 0.34 0.32 0.29 0.25 0.22 0.23 0.30 0.38 0.43 0.44 0.38 0.34 0.40 0.42 0.42 0.45 0.34 0.28 0.31 0.26
0.64 0.67 0.59 0.51 0.52 0.63 0.75 0.80 0.92 1.12 1.21 1.18 1.05 0.99 0.95 0.79 0.63 0.57 0.53 0.51 0.44 0.39 0.33 0.30 0.30 0.28 0.27 0.26 0.25 0.26 0.30 0.35 0.41 0.39 0.37 0.37 0.36 0.42 0.43 0.35 0.29 0.33 0.32
0.40 0.43 0.39 0.32 0.26 0.31 0.45 0.53 0.65 0.78 0.94 0.95 0.88 0.79 0.76 0.62 0.53 0.57 0.46 0.44 0.45 0.44 0.41 0.33 0.28 0.27 0.26 0.25 0.27 0.25 0.26 0.30 0.34 0.34 0.43 0.41 0.31 0.38 0.40 0.41 0.48 0.47 0.49
0.16 0.20 0.25 0.24 0.20 0.21 0.29 0.39 0.53 0.65 0.78 0.85 0.81 0.67 0.61 0.56 0.53 0.52 0.46 0.41 0.47 0.47 0.45 0.39 0.32 0.29 0.29 0.28 0.28 0.26 0.27 0.29 0.32 0.37 0.46 0.47 0.43 0.43 0.43 0.47 0.58 0.66 0.58
0.13 0.13 0.15 0.18 0.16 0.16 0.21 0.33 0.46 0.58 0.66 0.71 0.68 0.57 0.60 0.55 0.55 0.52 0.49 0.45 0.43 0.43 0.42 0.37 0.32 0.33 0.33 0.31 0.32 0.30 0.32 0.34 0.39 0.46 0.51 0.56 0.56 0.56 0.56 0.56 0.64 0.77 0.75
0.09 0.08 0.09 0.13 0.14 0.15 0.18 0.24 0.33 0.44 0.49 0.53 0.53 0.51 0.51 0.50 0.51 0.52 0.49 0.46 0.45 0.45 0.41 0.38 0.35 0.34 0.33 0.34 0.37 0.35 0.34 0.35 0.41 0.45 0.50 0.55 0.61 0.68 0.70 0.74 0.74 0.77 0.87
0.07 0.06 0.08 0.10 0.13 0.16 0.16 0.19 0.25 0.29 0.34 0.39 0.41 0.44 0.47 0.47 0.45 0.45 0.46 0.47 0.45 0.45 0.44 0.41 0.36 0.31 0.29 0.35 0.41 0.40 0.37 0.38 0.40 0.46 0.55 0.57 0.59 0.66 0.73 0.83 0.84 0.85 0.98
0.07 0.08 0.10 0.14 0.17 0.17 0.18 0.20 0.24 0.28 0.31 0.31 0.32 0.39 0.47 0.48 0.45 0.41 0.43 0.46 0.46 0.47 0.47 0.46 0.42 0.36 0.34 0.34 0.37 0.40 0.42 0.45 0.47 0.51 0.59 0.64 0.70 0.72 0.76 0.84 0.86 0.91 1.06
0.08 0.09 0.12 0.15 0.14 0.14 0.17 0.21 0.29 0.38 0.44 0.45 0.46 0.49 0.56 0.57 0.54 0.49 0.49 0.50 0.50 0.51 0.55 0.57 0.56 0.51 0.46 0.41 0.40 0.42 0.42 0.46 0.52 0.60 0.61 0.64 0.74 0.81 0.86 0.92 1.02 1.08 1.16
0.11 0.12 0.15 0.22 0.23 0.24 0.27 0.28 0.35 0.44 0.55 0.64 0.72 0.79 0.85 0.86 0.76 0.71 0.69 0.70 0.70 0.70 0.79 0.81 0.76 0.70 0.61 0.51 0.50 0.50 0.44 0.50 0.51 0.56 0.61 0.62 0.65 0.72 0.84 0.89 1.00 1.14 1.29
0.19 0.19 0.22 0.28 0.26 0.25 0.27 0.30 0.38 0.44 0.49 0.59 0.66 0.73 0.85 0.91 0.85 0.80 0.84 0.86 0.87 0.93 0.99 0.96 0.92 0.88 0.69 0.64 0.59 0.54 0.52 0.53 0.55 0.59 0.63 0.61 0.58 0.58 0.63 0.71 0.82 0.95 1.11
0.18 0.17 0.22 0.26 0.26 0.23 0.22 0.27 0.32 0.42 0.52 0.64 0.76 0.80 0.88 0.96 0.99 0.99 1.03 1.04 1.01 0.98 0.99 0.96 0.93 0.89 0.84 0.71 0.57 0.52 0.52 0.55 0.59 0.61 0.62 0.54 0.46 0.51 0.52 0.56 0.60 0.67 0.77
0.30 0.29 0.30 0.35 0.35 0.29 0.28 0.34 0.42 0.52 0.60 0.66 0.74 0.81 0.91 0.99 1.08 1.21 1.26 1.28 1.28 1.21 1.14 1.04 1.00 0.97 0.91 0.78 0.64 0.60 0.54 0.55 0.57 0.60 0.61 0.57 0.50 0.49 0.54 0.58 0.56 0.55 0.57
0.32 0.37 0.43 0.48 0.45 0.42 0.40 0.48 0.60 0.70 0.77 0.79 0.85 0.92 0.99 1.10 1.18 1.22 1.29 1.35 1.37 1.29 1.22 1.16 1.12 1.10 1.06 0.92 0.72 0.62 0.59 0.62 0.59 0.57 0.58 0.60 0.53 0.49 0.44 0.50 0.52 0.51 0.51
0.41 0.46 0.47 0.48 0.54 0.58 0.60 0.62 0.70 0.81 0.90 0.92 0.93 0.97 1.11 1.18 1.19 1.19 1.23 1.23 1.24 1.18 1.12 1.09 1.12 1.14 1.12 1.02 0.76 0.63 0.57 0.60 0.61 0.65 0.66 0.63 0.54 0.50 0.41 0.44 0.49 0.46 0.45
0.56 0.54 0.53 0.55 0.58 0.57 0.60 0.68 0.76 0.85 0.91 0.92 0.93 0.99 1.08 1.19 1.19 1.22 1.21 1.14 1.11 1.10 1.12 1.11 1.11 1.13 1.09 0.95 0.63 0.54 0.56 0.64 0.68 0.67 0.66 0.66 0.58 0.45 0.37 0.36 0.40 0.38 0.41
0.60 0.58 0.51 0.47 0.49 0.53 0.57 0.67 0.75 0.76 0.80 0.81 0.83 0.88 0.90 0.92 0.98 1.09 1.13 1.10 1.09 1.09 1.11 1.16 1.16 1.13 1.10 0.97 0.70 0.48 0.46 0.56 0.64 0.67 0.69 0.70 0.60 0.48 0.40 0.32 0.30 0.31 0.32
0.51 0.50 0.51 0.49 0.51 0.55 0.61 0.67 0.69 0.71 0.73 0.79 0.82 0.82 0.82 0.87 0.95 1.00 0.98 0.93 0.90 0.85 0.87 1.01 1.12 1.14 1.15 1.05 0.78 0.55 0.46 0.50 0.59 0.68 0.79 0.78 0.66 0.59 0.52 0.43 0.35 0.32 0.31
0.47 0.47 0.48 0.51 0.60 0.66 0.72 0.70 0.66 0.69 0.77 0.83 0.84 0.86 0.88 0.86 0.85 0.90 0.88 0.83 0.79 0.73 0.75 0.93 1.07 1.15 1.16 1.09 0.91 0.73 0.58 0.54 0.58 0.63 0.75 0.80 0.79 0.73 0.66 0.55 0.42 0.33 0.33
0.38 0.39 0.47 0.53 0.60 0.64 0.69 0.72 0.70 0.73 0.77 0.76 0.74 0.80 0.84 0.80 0.74 0.79 0.85 0.76 0.74 0.70 0.70 0.86 1.07 1.13 1.06 0.92 0.75 0.64 0.62 0.59 0.62 0.67 0.82 0.94 0.98 0.99 0.92 0.79 0.65 0.54 0.50
0.35 0.40 0.46 0.54 0.60 0.62 0.65 0.64 0.65 0.72 0.78 0.79 0.73 0.68 0.68 0.70 0.73 0.76 0.78 0.74 0.64 0.60 0.53 0.57 0.69 0.78 0.71 0.59 0.50 0.44 0.42 0.39 0.39 0.49 0.74 1.00 1.10 1.14 1.13 1.03 0.87 0.75 0.69